Tracking 17780 objects as of 27-July-2016
HD Live streaming from Space Station
objects crossing your sky now

COSMOS 2251 DEB

Track COSMOS 2251 DEB now!
10-day predictions


NORAD ID: 34544
Int'l Code: 1993-036UE
Perigee: 780.2 km
Apogee: 1,370.4 km
Inclination: 73.9 °
Period: 106.6 minutes
Semi major axis: 7446 km
RCS: 0.0085 m2 (small)
Launch date: June 16, 1993
Source: Commonwealth of Independent States (former USSR) (CIS)
Launch site: PLESETSK MISSILE AND SPACE COMPLEX (PKMTR)

Note: This is SATELLITE DEBRIS
Your satellite tracking list
Your tracking list is empty





NASA's NSSDC Master Catalog

Two Line Element Set (TLE):
1 34544U 93036UE  16207.76874146  .00000232  00000-0  24216-3 0  9995
2 34544  73.9209 327.7109 0396256 268.7983 249.4591 13.51110690366292
Source of the keplerian elements: AFSPC

N2YO: 1135